This is the latest recevied weather packets stored in our database for station/object S59MA-6. If no packets are shown the sender has not sent any weather packets the latest 10 day(s).
| Time | Temp. | Humidity | Pressure | Rain* | Wind** | Luminosity | Snow |
|---|---|---|---|---|---|---|---|
| 1777760453 | 10.56° C | 69% | 1009.4 hPa | 0 mm | - | - | - |
| 1777760153 | 10.56° C | 69% | 1009.6 hPa | 0 mm | - | - | - |
| 1777759853 | 11.11° C | 69% | 1009.5 hPa | 0 mm | - | - | - |
| 1777759553 | 11.11° C | 68% | 1009.5 hPa | 0.51 mm | - | - | - |
| 1777759253 | 11.11° C | 67% | 1009.2 hPa | 1.52 mm | - | - | - |
| 1777758954 | 11.11° C | 67% | 1009.4 hPa | 2.54 mm | - | - | - |
| 1777758653 | 11.11° C | 67% | 1009.5 hPa | 2.54 mm | - | - | - |
| 1777758352 | 11.11° C | 67% | 1009.4 hPa | 2.54 mm | - | - | - |
| 1777757786 | 11.67° C | 66% | 1009.2 hPa | 6.6 mm | - | - | - |
| 1777757753 | 11.67° C | 66% | 1009.2 hPa | 6.6 mm | - | - | - |
| 1777757453 | 11.67° C | 65% | 1009.4 hPa | 6.6 mm | - | - | - |
| 1777756852 | 11.67° C | 65% | 1009.2 hPa | 6.6 mm | - | - | - |
| 1777756553 | 11.67° C | 65% | 1009.2 hPa | 6.6 mm | - | - | - |
| 1777756256 | 12.22° C | 65% | 1009.3 hPa | 6.1 mm | - | - | - |
| 1777755954 | 12.22° C | 65% | 1009.2 hPa | 6.1 mm | - | - | - |
| 1777755355 | 12.22° C | 64% | 1009.1 hPa | 5.59 mm | - | - | - |
| 1777755053 | 12.22° C | 63% | 1009.2 hPa | 5.59 mm | - | - | - |
| 1777754752 | 12.22° C | 63% | 1009.3 hPa | 5.59 mm | - | - | - |
| 1777754452 | 12.78° C | 63% | 1009.1 hPa | 5.59 mm | - | - | - |
| 1777754152 | 12.78° C | 62% | 1009 hPa | 133.6 mm | - | - | - |
| 1777753852 | 13.33° C | 61% | 1009.1 hPa | 253.75 mm | - | - | - |
| 1777753555 | 13.33° C | 61% | 1009.1 hPa | 253.75 mm | - | - | - |
| 1777752953 | 13.33° C | 61% | 1009.1 hPa | 253.75 mm | - | - | - |
| 1777752354 | 13.33° C | 61% | 1009 hPa | 253.75 mm | - | - | - |
| 1777752054 | 100° C | 100% | 1009 hPa | 253.75 mm | - | - | - |
* Rain latest hour (hover to see other rain measurements)
** Current wind speed in m/s (hover to see current wind gust speed)